This is the latest recevied weather packets stored in our database for station/object KB9PVH-3. If no packets are shown the sender has not sent any weather packets the latest 10 day(s).
| Time | Temp. | Humidity | Pressure | Rain* | Wind** | Luminosity | Snow |
|---|---|---|---|---|---|---|---|
| 1777525585 | 2.78° C | 96% | 1018.3 hPa | 0 mm | - | - | - |
| 1777524565 | 3.33° C | 96% | 1018.2 hPa | 0 mm | - | - | - |
| 1777523515 | 3.33° C | 96% | 1018 hPa | 0 mm | - | - | - |
| 1777522469 | 3.33° C | 96% | 1018.2 hPa | 0 mm | - | - | - |
| 1777521415 | 3.33° C | 96% | 1018.3 hPa | 0 mm | - | - | - |
| 1777520366 | 3.89° C | 96% | 1018.2 hPa | 0 mm | - | - | - |
| 1777519315 | 3.89° C | 96% | 1018.1 hPa | 0 mm | - | - | - |
| 1777518265 | 3.89° C | 95% | 1018.3 hPa | 0 mm | - | - | - |
| 1777517216 | 4.44° C | 94% | 1018.2 hPa | 0 mm | - | - | - |
| 1777516166 | 4.44° C | 94% | 1017.9 hPa | 0 mm | - | - | - |
| 1777515115 | 5° C | 92% | 1017.8 hPa | 0 mm | - | - | - |
| 1777514065 | 5° C | 93% | 1017.8 hPa | 0 mm | - | - | - |
| 1777513046 | 5° C | 92% | 1017.6 hPa | 0 mm | - | - | - |
| 1777511995 | 5° C | 91% | 1017.5 hPa | 0 mm | - | - | - |
| 1777510945 | 5.56° C | 90% | 1017.5 hPa | 0 mm | - | - | - |
| 1777509895 | 5.56° C | 91% | 1017.4 hPa | 0 mm | - | - | - |
| 1777508845 | 5.56° C | 91% | 1017.4 hPa | 0 mm | - | - | - |
| 1777507795 | 5.56° C | 90% | 1017.2 hPa | 0 mm | - | - | - |
| 1777506746 | 6.11° C | 88% | 1017.6 hPa | 1.27 mm | - | - | - |
| 1777505695 | 7.22° C | 91% | 1017.4 hPa | 0 mm | - | - | - |
| 1777504646 | 7.22° C | 91% | 1017.3 hPa | 0 mm | - | - | - |
| 1777503598 | 7.22° C | 90% | 1017.2 hPa | 0 mm | - | - | - |
| 1777502545 | 7.22° C | 90% | 1017.2 hPa | 0 mm | - | - | - |
| 1777501496 | 7.22° C | 88% | 1017.3 hPa | 0.51 mm | - | - | - |
| 1777500446 | 7.78° C | 88% | 1017.1 hPa | 0 mm | - | - | - |
* Rain latest hour (hover to see other rain measurements)
** Current wind speed in m/s (hover to see current wind gust speed)